Location: Coopersdale
(40.3556°N, 78.9372°W)
Time: 03:35:02
(UTC+00:00)

Tiros 1 despin weight - Pass Details

Date: 26 January 2021
Orbit: 593 x 642 km, 48.2° (Epoch: 02 March)

Event Time Altitude Azimuth Distance (km) Brightness Sun altitude
Rises 18:52:26 0° 242° (WSW) 2,901 ? 28.0°
Reaches altitude 10° 18:54:45 10° 244° (WSW) 1,989 ? 27.8°
Maximum altitude 18:59:20 79° 330° (NNW) 632 ? 27.4°
Drops below altitude 10° 19:03:52 10° 59° (ENE) 1,964 ? 27.1°
Sets 19:06:09 0° 60° (ENE) 2,862 ? 26.9°
